Temp
-5 -5 -5 -5 -6 -5 -5 -5 -5 -5 -5 -5 -5 -5 -5 -5 -6 -6 -6 -6 -5 -6 -6 -6 -6 -6 -6 -7 -7 -7 -7 -7 -7 -7 -7 -7 -7 -7 -7 -7 -7 -8 -8
-6 -5 -5 -5 -5 -6 -5 -5 -5 -5 -5 -5 -5 -5 -5 -5 -6 -6 -6 -6 -5 -5 -6 -6 -6 -6 -7 -7 -7 -7 -7 -7 -7 -7 -7 -7 -7 -7 -7 -7 -7 -7 -8
-5 -6 -5 -5 -5 -5 -6 -5 -5 -5 -5 -5 -5 -5 -5 -5 -5 -6 -6 -6 -6 -6 -6 -6 -6 -6 -6 -7 -7 -7 -7 -7 -7 -7 -7 -7 -7 -7 -7 -7 -7 -7 -7
-5 -5 -5 -5 -5 -5 -5 -6 -5 -5 -5 -5 -5 -5 -5 -6 -5 -6 -6 -6 -6 -6 -5 -6 -6 -6 -6 -6 -7 -7 -7 -7 -7 -7 -6 -6 -6 -7 -7 -7 -7 -7 -7
-6 -6 -6 -5 -5 -5 -5 -5 -6 -6 -5 -5 -5 -5 -5 -5 -6 -6 -6 -6 -6 -6 -6 -6 -6 -6 -6 -6 -6 -6 -6 -7 -7 -7 -7 -7 -6 -6 -7 -7 -7 -7 -7
-6 -6 -6 -6 -5 -5 -5 -5 -5 -6 -6 -5 -5 -5 -5 -5 -5 -6 -6 -6 -6 -6 -6 -6 -6 -6 -6 -6 -6 -6 -6 -6 -6 -6 -7 -7 -6 -6 -7 -7 -7 -7 -7
-6 -6 -6 -6 -6 -5 -5 -5 -4 -5 -6 -6 -5 -5 -5 -5 -5 -5 -5 -6 -6 -6 -6 -6 -6 -6 -6 -6 -6 -6 -6 -6 -6 -6 -6 -6 -7 -6 -7 -7 -7 -7 -7
-6 -6 -6 -6 -6 -5 -5 -5 -5 -5 -5 -5 -6 -5 -5 -6 -5 -5 -5 -5 -6 -6 -6 -6 -6 -6 -6 -6 -5 -5 -5 -5 -5 -5 -6 -6 -6 -7 -7 -7 -7 -7 -7
-7 -7 -7 -6 -6 -6 -5 -5 -5 -5 -5 -5 -5 -5 -6 -6 -6 -5 -5 -5 -5 -6 -6 -6 -6 -6 -6 -5 -5 -6 -5 -6 -5 -4 -5 -6 -6 -6 -6 -7 -7 -7 -7
-6 -7 -7 -6 -7 -6 -6 -5 -5 -5 -5 -5 -5 -5 -5 -6 -6 -6 -5 -5 -5 -6 -6 -6 -6 -6 -6 -5 -5 -5 -5 -6 -5 -5 -5 -6 -6 -6 -6 -7 -7 -7 -7
-8 -8 -7 -6 -7 -7 -7 -6 -5 -5 -5 -4 -5 -5 -5 -6 -6 -6 -5 -5 -5 -6 -6 -6 -6 -6 -6 -5 -5 -5 -6 -6 -5 -5 -5 -5 -6 -6 -6 -7 -7 -7 -8
-8 -7 -7 -7 -7 -7 -7 -7 -6 -6 -6 -5 -5 -4 -5 -5 -5 -5 -5 -5 -5 -5 -6 -6 -6 -6 -6 -5 -5 -5 -6 -6 -6 -6 -6 -6 -6 -6 -7 -7 -7 -8 -8
-7 -8 -8 -7 -7 -7 -7 -8 -7 -7 -6 -6 -5 -5 -5 -5 -5 -6 -5 -5 -5 -5 -6 -6 -6 -6 -6 -6 -6 -6 -6 -6 -6 -6 -6 -6 -6 -6 -7 -7 -7 -8 -8
-9 -9 -9 -8 -8 -7 -8 -9 -7 -8 -6 -6 -6 -6 -6 -6 -6 -6 -6 -5 -5 -5 -5 -6 -6 -6 -6 -6 -6 -6 -6 -6 -6 -6 -6 -6 -6 -7 -7 -7 -8 -8 -9
-9 -9 -8 -8 -9 -8 -8 -8 -7 -7 -7 -7 -7 -6 -6 -6 -6 -6 -6 -6 -5 -5 -5 -5 -6 -6 -6 -6 -6 -6 -6 -6 -6 -6 -7 -7 -7 -7 -7 -7 -8 -8 -9
-9 -9 -8 -7 -6 -7 -8 -8 -8 -8 -7 -7 -7 -7 -6 -6 -6 -7 -6 -6 -6 -6 -5 -5 -5 -6 -6 -6 -6 -6 -6 -6 -6 -7 -7 -7 -7 -7 -7 -7 -8 -9 -9
-10 -9 -8 -8 -7 -7 -7 -7 -8 -7 -8 -7 -8 -7 -7 -8 -7 -7 -7 -6 -6 -6 -6 -6 -6 -6 -6 -6 -6 -6 -6 -6 -7 -7 -7 -7 -8 -8 -8 -8 -9 -9 -9
-10 -10 -9 -9 -7 -7 -8 -8 -7 -7 -7 -7 -8 -8 -7 -7 -8 -8 -7 -7 -6 -6 -6 -6 -6 -6 -6 -6 -6 -6 -6 -6 -7 -7 -7 -7 -8 -8 -8 -8 -8 -8 -9
-11 -10 -10 -9 -8 -8 -8 -8 -8 -8 -8 -8 -8 -8 -8 -8 -8 -8 -8 -7 -7 -7 -6 -6 -6 -6 -6 -6 -6 -6 -6 -6 -7 -7 -7 -8 -8 -8 -8 -8 -9 -9 -9
-10 -10 -10 -9 -8 -9 -9 -8 -8 -8 -8 -8 -8 -8 -9 -9 -9 -8 -8 -8 -7 -7 -7 -7 -7 -6 -6 -6 -6 -7 -7 -7 -7 -7 -7 -8 -8 -8 -8 -8 -8 -9 -9
-11 -10 -11 -10 -10 -10 -9 -9 -9 -9 -8 -8 -8 -8 -8 -8 -9 -9 -9 -8 -8 -8 -7 -8 -7 -7 -7 -6 -6 -6 -7 -7 -8 -8 -8 -8 -8 -8 -8 -8 -8 -9 -9
-12 -11 -10 -10 -10 -10 -10 -9 -9 -9 -9 -10 -9 -8 -8 -8 -8 -9 -9 -9 -8 -8 -8 -8 -8 -8 -7 -8 -8 -7 -7 -8 -8 -8 -8 -8 -9 -9 -9 -9 -9 -9 -9
-12 -12 -12 -12 -11 -10 -10 -9 -9 -9 -9 -9 -9 -9 -8 -8 -8 -8 -9 -9 -9 -8 -8 -8 -9 -8 -7 -8 -8 -9 -8 -8 -9 -8 -8 -8 -8 -9 -9 -9 -9 -9 -9
-12 -11 -12 -12 -12 -11 -10 -10 -9 -9 -9 -9 -9 -8 -8 -8 -8 -9 -8 -8 -9 -9 -8 -8 -8 -8 -8 -8 -8 -7 -9 -9 -9 -9 -9 -9 -7 -8 -9 -9 -8 -9 -9
-14 -12 -12 -14 -12 -11 -9 -10 -10 -10 -9 -9 -9 -9 -8 -9 -9 -9 -8 -8 -8 -9 -8 -8 -8 -8 -8 -8 -8 -8 -8 -8 -9 -9 -9 -9 -9 -9 -9 -9 -9 -10 -9
-14 -13 -13 -14 -13 -12 -11 -10 -11 -11 -9 -9 -9 -9 -9 -9 -9 -9 -9 -9 -8 -8 -8 -8 -8 -8 -9 -7 -7 -8 -8 -8 -8 -8 -8 -8 -9 -8 -10 -10 -8 -9 -9
Height
5911 5914 5915 5921 5927 5930 5932 5935 5937 5940 5942 5943 5944 5946 5947 5949 5950 5952 5954 5955 5956 5958 5960 5962 5964 5965 5967 5968 5968 5969 5969 5970 5970 5970 5969 5969 5969 5968 5966 5964 5963 5960 5958
5907 5911 5915 5915 5918 5925 5929 5932 5935 5937 5940 5941 5943 5945 5946 5947 5949 5951 5953 5955 5956 5957 5959 5961 5963 5964 5966 5967 5968 5969 5970 5970 5970 5970 5970 5969 5968 5967 5965 5964 5962 5960 5959
5895 5903 5909 5913 5916 5920 5924 5929 5932 5934 5937 5940 5942 5944 5944 5945 5947 5949 5951 5953 5954 5956 5958 5959 5961 5963 5964 5965 5967 5968 5969 5969 5969 5969 5969 5969 5968 5967 5966 5964 5962 5960 5958
5893 5896 5900 5906 5912 5915 5917 5921 5926 5929 5932 5936 5938 5940 5942 5943 5945 5947 5949 5950 5952 5954 5955 5957 5959 5961 5963 5964 5965 5966 5967 5967 5967 5967 5967 5966 5965 5965 5964 5962 5960 5958 5957
5889 5892 5896 5899 5903 5908 5911 5914 5919 5923 5927 5930 5933 5936 5939 5941 5943 5944 5946 5948 5950 5951 5952 5954 5955 5957 5959 5961 5962 5963 5964 5964 5965 5964 5964 5963 5963 5962 5962 5961 5959 5957 5955
5885 5886 5889 5890 5895 5902 5906 5908 5911 5918 5922 5925 5929 5932 5935 5937 5939 5941 5943 5945 5946 5948 5949 5951 5953 5954 5956 5957 5958 5959 5960 5961 5961 5961 5962 5961 5960 5959 5959 5958 5957 5956 5954
5875 5878 5881 5883 5887 5892 5898 5901 5904 5908 5914 5919 5923 5927 5931 5932 5934 5936 5938 5940 5942 5944 5946 5948 5949 5950 5951 5953 5954 5955 5957 5957 5957 5958 5958 5957 5956 5956 5956 5955 5954 5954 5952
5863 5867 5871 5875 5880 5884 5889 5895 5899 5902 5907 5911 5915 5919 5923 5927 5929 5931 5933 5935 5937 5940 5942 5943 5945 5946 5947 5948 5950 5951 5952 5953 5953 5953 5953 5952 5953 5951 5952 5952 5951 5950 5948
5848 5854 5859 5866 5870 5876 5882 5888 5893 5895 5900 5906 5909 5912 5916 5920 5922 5925 5927 5930 5933 5936 5937 5938 5939 5941 5941 5943 5946 5946 5947 5947 5948 5949 5948 5948 5947 5947 5948 5948 5947 5946 5945
5836 5843 5849 5854 5860 5866 5873 5876 5881 5886 5891 5894 5900 5904 5909 5912 5915 5918 5921 5925 5928 5931 5932 5933 5934 5935 5935 5937 5940 5941 5943 5940 5943 5944 5944 5943 5943 5942 5943 5944 5943 5942 5941
5825 5835 5839 5843 5850 5856 5861 5866 5870 5876 5883 5887 5891 5895 5901 5904 5907 5911 5915 5919 5922 5923 5925 5927 5928 5928 5929 5931 5934 5936 5936 5933 5937 5938 5938 5938 5937 5938 5938 5939 5939 5937 5936
5818 5824 5830 5834 5838 5844 5849 5855 5858 5864 5873 5879 5883 5886 5892 5896 5899 5903 5907 5912 5914 5917 5919 5921 5922 5922 5923 5925 5928 5930 5929 5929 5931 5931 5932 5931 5932 5932 5933 5934 5933 5932 5931
5808 5815 5819 5824 5828 5833 5839 5844 5849 5856 5863 5868 5874 5879 5883 5887 5890 5894 5898 5902 5905 5909 5911 5912 5912 5913 5915 5918 5920 5921 5923 5924 5925 5925 5926 5925 5926 5926 5927 5927 5926 5926 5925
5799 5803 5807 5815 5821 5826 5832 5834 5840 5847 5852 5857 5865 5871 5875 5877 5881 5883 5888 5891 5894 5899 5901 5901 5901 5903 5906 5910 5913 5915 5916 5917 5918 5919 5919 5918 5919 5919 5920 5920 5920 5919 5919
5789 5796 5803 5810 5812 5813 5819 5826 5834 5839 5842 5847 5855 5858 5863 5869 5873 5873 5875 5880 5884 5887 5885 5889 5895 5897 5899 5902 5904 5906 5908 5910 5911 5911 5911 5911 5911 5912 5912 5913 5913 5913 5913
5777 5786 5793 5801 5806 5806 5809 5819 5828 5832 5836 5842 5846 5850 5853 5857 5859 5863 5867 5870 5872 5875 5879 5884 5888 5890 5892 5894 5895 5896 5899 5901 5902 5903 5904 5904 5905 5905 5905 5906 5906 5906 5906
5762 5770 5781 5791 5798 5800 5804 5810 5816 5824 5826 5831 5838 5841 5844 5848 5850 5853 5856 5858 5862 5865 5873 5877 5881 5883 5884 5883 5885 5886 5889 5891 5892 5895 5895 5896 5897 5897 5898 5898 5898 5899 5899
5748 5755 5766 5778 5783 5791 5796 5802 5807 5813 5818 5822 5829 5833 5836 5839 5840 5842 5845 5849 5853 5857 5862 5867 5870 5871 5872 5873 5874 5876 5879 5881 5883 5885 5886 5886 5887 5888 5889 5890 5890 5890 5888
5735 5743 5753 5764 5769 5776 5785 5791 5795 5801 5807 5812 5817 5822 5826 5830 5834 5835 5837 5840 5843 5847 5852 5856 5859 5861 5862 5863 5867 5868 5871 5873 5873 5875 5876 5876 5877 5878 5879 5878 5878 5878 5878
5724 5731 5742 5751 5755 5764 5770 5779 5784 5790 5795 5799 5804 5809 5816 5820 5825 5827 5829 5831 5835 5839 5842 5847 5849 5850 5852 5853 5855 5857 5859 5859 5861 5863 5863 5863 5865 5867 5867 5866 5866 5867 5866
5708 5718 5727 5736 5741 5750 5758 5766 5773 5777 5782 5786 5793 5799 5803 5807 5812 5817 5820 5822 5825 5828 5831 5833 5836 5839 5840 5843 5844 5844 5845 5846 5848 5849 5850 5850 5850 5851 5852 5853 5854 5855 5855
5695 5703 5712 5719 5728 5736 5746 5753 5759 5767 5772 5777 5782 5788 5791 5796 5797 5803 5808 5811 5814 5815 5819 5821 5823 5825 5825 5825 5829 5833 5834 5833 5836 5837 5838 5837 5834 5835 5837 5839 5841 5841 5841
5680 5690 5696 5704 5713 5724 5734 5740 5747 5755 5760 5765 5770 5774 5777 5782 5785 5789 5794 5799 5801 5802 5804 5805 5806 5807 5808 5812 5813 5816 5820 5821 5820 5822 5824 5824 5822 5823 5823 5824 5826 5826 5828
5664 5674 5682 5689 5700 5711 5719 5726 5735 5741 5745 5750 5756 5761 5765 5769 5771 5776 5781 5785 5788 5790 5791 5791 5791 5793 5796 5795 5795 5794 5796 5801 5803 5805 5807 5807 5800 5803 5806 5806 5808 5813 5813
5650 5656 5667 5677 5687 5695 5704 5711 5720 5727 5731 5735 5741 5746 5751 5755 5758 5761 5764 5768 5773 5775 5776 5777 5777 5777 5777 5777 5777 5780 5782 5781 5784 5786 5788 5790 5791 5792 5792 5792 5792 5792 5793
5635 5641 5651 5661 5671 5679 5688 5695 5704 5710 5715 5721 5728 5734 5737 5741 5746 5748 5750 5753 5757 5759 5760 5758 5757 5758 5756 5758 5758 5758 5761 5764 5767 5770 5770 5772 5771 5774 5773 5773 5774 5774 5776
Wind_Speed
32 32 32 28 26 25 24 22 20 17 13 10 9 8 9 9 9 8 9 11 15 18 19 16 11 10 8 6 6 6 5 4 3 3 1 1 2 5 8 10 14 18 21
33 34 34 34 32 28 25 24 23 21 18 14 13 12 10 10 10 10 9 11 12 16 17 17 12 10 10 8 6 6 5 4 3 2 3 4 5 6 8 10 13 16 18
39 37 36 35 33 31 29 27 26 26 23 20 18 16 13 12 12 12 12 12 13 13 16 17 16 13 12 11 8 8 7 7 5 5 6 7 6 9 9 12 13 15 16
34 39 40 38 36 36 35 32 29 28 28 25 22 19 17 16 14 13 12 13 13 14 15 17 18 18 16 14 13 12 11 10 10 11 11 11 10 9 12 14 17 16 17
34 31 36 40 41 41 40 37 35 31 29 29 26 23 21 19 17 16 15 14 13 14 15 16 17 19 19 19 19 18 16 16 15 15 16 16 16 14 13 15 16 16 18
36 35 35 40 43 43 44 42 39 35 33 30 28 26 25 23 23 22 20 19 17 15 16 16 17 17 19 20 20 21 20 21 21 20 20 21 20 18 17 17 18 16 17
43 40 41 41 43 46 47 47 43 40 37 33 30 29 26 25 25 25 24 23 21 19 18 17 18 19 20 20 20 20 20 21 22 22 22 23 22 19 20 19 19 19 19
53 52 46 44 44 45 48 49 45 42 40 36 33 31 31 28 28 26 26 26 25 23 21 20 21 22 21 21 21 21 21 21 23 23 22 24 23 25 22 20 21 20 21
60 53 52 47 45 47 46 47 48 45 42 39 36 35 32 30 30 29 27 24 26 25 24 23 23 25 26 24 21 22 21 22 22 21 23 23 25 26 24 23 22 22 22
65 58 57 50 48 48 50 49 51 51 47 45 42 39 37 35 33 32 31 27 24 25 25 23 23 25 29 26 21 20 17 24 21 20 21 24 25 26 24 21 20 21 23
53 58 63 57 48 46 50 52 51 50 52 49 46 44 41 39 38 35 32 30 26 26 27 24 24 25 27 25 20 17 20 27 22 19 21 23 25 26 25 21 21 23 23
61 54 56 47 53 51 45 47 48 50 51 51 51 49 45 43 41 39 36 30 29 28 28 28 28 28 28 25 22 20 23 26 23 22 23 25 24 25 25 23 24 25 24
45 42 50 44 43 48 43 43 44 44 47 48 50 49 46 45 44 42 39 37 33 32 31 33 35 35 34 30 27 26 26 26 27 26 26 26 25 24 25 26 27 26 24
48 43 45 33 47 50 46 44 42 42 43 44 47 48 48 47 45 44 42 40 39 36 37 39 40 40 39 36 33 29 27 28 29 29 29 29 28 27 27 28 27 27 24
51 46 46 46 35 42 60 42 38 36 38 39 41 44 46 46 45 47 47 45 43 42 46 45 42 42 42 39 39 36 33 31 31 32 32 30 28 28 29 28 26 25 26
55 53 52 40 39 37 49 46 38 39 36 32 34 38 41 43 46 47 47 47 47 47 45 42 42 43 44 45 44 42 38 35 36 36 36 33 30 29 29 27 27 28 29
62 65 62 51 43 43 40 42 44 39 34 34 32 35 38 37 42 45 47 48 48 48 43 40 39 42 44 48 49 48 43 40 40 39 38 37 33 30 29 30 31 33 36
61 72 74 60 51 56 52 44 46 44 41 38 36 34 33 35 39 42 45 46 47 46 44 41 40 41 44 48 51 51 49 44 43 42 42 40 38 35 34 35 38 39 41
68 64 66 64 52 55 59 54 47 51 50 45 42 39 38 37 36 38 42 45 46 47 45 42 40 40 42 45 47 49 48 47 47 43 44 44 43 41 41 43 45 45 41
70 71 70 66 60 56 58 56 50 48 58 54 47 45 42 40 38 40 38 38 42 46 46 43 42 40 39 41 42 45 45 48 48 46 45 45 45 45 46 49 48 45 45
75 81 72 68 63 60 59 60 57 53 45 43 47 50 48 48 46 44 43 42 38 40 38 41 45 46 44 44 44 45 46 47 46 47 48 49 47 47 48 48 48 48 50
65 76 77 66 63 62 63 60 60 56 50 46 45 48 51 57 53 50 49 48 46 45 44 44 43 42 47 49 46 50 50 48 47 47 48 49 49 49 50 51 49 49 50
77 72 66 62 66 69 68 60 56 53 50 48 48 49 49 56 56 56 56 53 53 52 53 57 57 51 52 58 48 56 60 57 52 51 51 52 54 52 53 53 53 53 58
85 80 71 62 64 72 68 56 56 50 48 45 48 50 53 54 61 66 63 57 58 60 60 62 62 59 60 55 56 61 68 57 51 54 55 58 54 55 55 53 52 61 62
66 66 81 73 69 64 64 58 59 52 49 46 44 46 50 52 57 64 63 60 61 63 65 66 67 70 72 70 60 56 59 53 54 59 61 62 64 66 62 64 61 62 60
64 54 66 68 71 67 65 65 65 58 52 51 47 46 49 51 56 62 65 66 67 67 66 68 67 70 71 67 55 55 57 61 57 58 62 61 62 68 71 68 64 64 68
Wind_Direction
210 206 201 205 213 217 215 214 215 220 216 214 200 196 170 163 163 159 156 160 167 167 167 166 165 179 175 174 170 161 164 170 161 166 186 252 333 358 5 12 16 21 12
213 214 210 205 209 216 219 222 221 223 221 218 216 214 197 176 174 179 178 172 173 181 179 181 184 185 191 199 207 198 203 210 225 245 274 291 302 326 344 350 359 9 3
207 212 215 214 212 212 217 223 224 226 226 218 220 219 216 201 190 189 191 188 184 186 189 193 200 209 211 216 225 231 240 240 254 268 279 289 310 321 330 327 340 352 355
215 214 213 213 213 212 212 217 222 224 228 220 220 223 221 217 213 201 202 199 200 199 201 202 205 213 224 230 234 241 250 262 269 273 278 282 288 289 297 309 322 335 343
215 218 217 216 213 215 215 213 216 220 226 228 219 221 225 224 224 221 216 217 211 211 211 213 215 218 222 229 236 245 250 258 263 269 275 284 286 288 292 297 308 318 325
223 218 222 219 219 215 218 215 215 216 221 227 226 221 222 221 224 228 227 226 225 226 225 223 225 227 231 235 240 246 250 255 263 268 272 276 287 287 289 290 299 308 312
231 227 225 222 223 218 218 219 216 213 214 220 224 224 222 224 225 227 230 232 232 233 236 238 236 234 236 239 243 248 250 256 261 264 267 275 277 285 289 289 293 300 304
231 230 231 228 223 223 221 221 220 218 217 216 219 221 223 221 226 230 231 231 234 236 239 243 246 245 245 245 247 250 254 261 268 273 272 277 278 281 288 292 291 294 300
219 221 228 229 226 225 225 224 223 221 221 221 219 221 223 226 226 228 232 234 233 234 238 246 251 249 247 248 250 250 255 262 264 267 274 276 275 276 284 290 292 291 298
218 219 227 224 223 225 226 223 223 222 221 220 219 220 221 223 227 230 230 229 231 234 236 243 252 251 247 247 250 252 256 261 272 279 272 269 270 273 277 282 285 290 296
217 220 223 222 216 220 222 223 222 223 224 223 221 222 223 224 228 231 234 229 227 232 235 239 247 247 244 244 244 252 256 264 270 266 271 274 268 269 274 276 280 285 289
219 223 231 232 219 215 216 224 221 222 225 227 226 225 225 227 229 232 235 236 232 232 236 237 240 245 246 244 244 248 254 262 267 264 274 276 271 267 270 273 278 284 285
221 232 238 237 225 215 217 219 218 225 224 226 229 228 227 229 230 231 234 236 233 231 234 237 239 242 244 246 249 253 255 257 259 265 271 274 271 270 266 268 276 278 277
229 241 246 229 233 235 222 214 213 221 221 222 227 228 227 229 231 233 234 235 236 233 233 234 235 238 244 246 249 251 252 255 256 260 265 269 270 267 266 268 272 276 280
227 235 238 239 240 240 212 207 209 212 216 218 223 225 227 229 231 232 234 234 236 235 233 234 236 239 244 248 250 250 251 253 254 254 260 264 265 267 266 268 269 269 274
235 240 240 236 234 225 200 202 205 210 213 215 224 227 228 230 234 235 236 238 240 241 241 240 240 241 243 246 249 250 250 252 254 254 256 261 265 267 262 260 266 265 271
234 239 239 241 227 227 216 203 203 213 215 213 220 230 227 230 234 237 238 239 241 244 246 248 246 247 245 246 248 251 251 250 253 257 256 259 261 267 260 258 257 266 274
239 240 240 237 229 221 227 219 215 216 219 221 226 229 234 235 235 234 238 240 241 245 248 250 250 248 246 246 249 251 253 253 254 257 260 259 260 260 260 260 264 270 276
233 235 235 235 229 226 228 229 224 216 221 222 223 226 232 237 240 242 239 240 242 245 248 252 253 255 253 251 252 253 256 258 257 258 260 259 259 259 259 261 265 269 274
225 229 230 234 229 226 230 229 232 229 225 219 222 225 230 236 241 243 244 246 246 250 251 252 255 258 258 256 253 252 252 253 255 258 261 261 262 262 260 261 264 269 272
220 224 224 227 231 233 228 227 229 235 238 223 227 231 231 232 235 242 247 245 245 248 253 257 254 257 259 262 259 254 251 252 252 254 257 262 262 263 262 265 270 272 274
220 215 216 223 229 234 237 227 225 231 235 242 237 236 240 235 232 234 242 247 247 248 251 254 257 259 252 251 255 260 255 251 251 255 255 260 258 260 263 268 268 270 277
227 223 227 221 227 236 240 234 228 231 233 235 239 238 240 239 238 239 237 239 247 251 254 255 251 252 261 263 256 257 256 252 250 253 255 258 259 264 264 265 267 270 271
235 235 232 229 229 232 233 233 229 227 230 234 240 243 241 249 247 241 243 245 248 253 257 261 268 268 262 264 266 274 245 247 252 256 256 258 256 256 262 266 261 272 274
237 237 239 237 234 225 225 226 228 231 232 233 241 249 248 246 245 241 247 250 252 257 259 262 266 270 271 267 264 263 252 244 251 255 256 257 258 263 262 271 266 263 276
232 232 239 244 241 236 228 228 232 239 239 236 240 251 255 255 253 252 255 255 254 255 260 261 259 259 259 256 253 244 253 253 249 257 255 257 258 257 267 258 261 260 270